Regional Weather Roundup
Issued by NWS

Home | Current Version | Previous Version | Text Only | Print | Product List | Glossary Off
Versions: 1 2 3 4 5 6 7 8 9 10 11 12 13 14 15 16 17 18 19 20 21 22 23 24 25 26 27 28 29 30 31 32 33 34 35 36 37 38 39 40 41 42 43 44 45 46 47 48 49 50

000
ASUS45 KABQ 210210
RWRNM
WEATHER ROUNDUP FOR NEW MEXICO
NATIONAL WEATHER SERVICE ALBUQUERQUE NM
800 PM MDT MON OCT 20 2014

NOTE: "FAIR" MEANS FEW OR NO CLOUDS BELOW 12,000 FEET AGL WITH NO
       SIGNIFICANT WEATHER OR OBSTRUCTIONS TO VISION.

      THIS PRODUCT IS RELEASED AS TWO VERSIONS.  ONE VERSION NEAR
      THE TOP OF THE HOUR CONTAINING PRELIMINARY DATA FROM ALBUQUERQUE
      AND OTHER STATIONS.  A FINAL VERSION WITH ADDITIONAL DATA IS
      ISSUED ABOUT 10 MINUTES AFTER THE HOUR.

NMZ501-503-504-510>518-210300-
NORTHWEST PLATEAU/NORTHCENTRAL MOUNTAINS

CITY           SKY/WX    TMP DP  RH WIND       PRES   REMARKS
FARMINGTON     CLEAR     57  44  62 E6        30.11R
LOS ALAMOS     PTCLDY    55  40  56 S7        30.24R
SANTA FE       HVY RAIN  56  45  66 SW6       30.21R
TAOS           PTCLDY    55  36  47 SE10      30.24R
ANGEL FIRE     FAIR      42  35  74 CALM      30.33R

$$
NMZ402-403-502-505>509-210300-
WESTCENTRAL MOUNTAINS/SOUTHWEST MOUNTAINS

CITY           SKY/WX    TMP DP  RH WIND       PRES   REMARKS
GALLUP         PTCLDY    53  45  74 E3        30.17R
GRANTS         PTCLDY    55  41  58 SE12      30.21R
SILVER CITY    MOCLDY    59  48  67 SE12G20   30.13R

$$
NMZ407-409-411-412-210300-
SOUTHERN DESERTS

CITY           SKY/WX    TMP DP  RH WIND       PRES   REMARKS
LORDSBURG      FAIR      59  52  77 MISG      30.04S
DEMING         CLOUDY    59  54  83 S10       30.09R
LAS CRUCES     MOCLDY    61  53  76 CALM      30.09R
HOLLOMAN AFB   MOCLDY    60  60 100 N2        30.08R
T OR C         CLOUDY    57  54  89 N10       30.12R

$$
NMZ519>523-210300-
CENTRAL VALLEYS/CENTRAL HIGHLANDS

CITY           SKY/WX    TMP DP  RH WIND       PRES   REMARKS
ALBUQUERQUE    LGT RAIN  59  51  75 NE12      30.16R
DOUBLE EAGLE   CLOUDY    55  52  88 E10       30.19R
MORIARTY ARPT  CLOUDY    51  47  86 W5        30.24R
CLINES CORNERS LGT RAIN  50  43  77 S6        30.24R
BELEN          NOT AVBL
SOCORRO        CLOUDY    58  51  76 SW7       30.13F

$$
NMZ524>526-539-540-210300-
SOUTHCENTRAL MOUNTAINS

CITY           SKY/WX    TMP DP  RH WIND       PRES   REMARKS
RUIDOSO        NOT AVBL

$$
NMZ527>531-210300-
NORTHEAST HIGHLANDS/NORTHEAST PLAINS

CITY           SKY/WX    TMP DP  RH WIND       PRES   REMARKS
LAS VEGAS      PTCLDY    52  43  71 SE13      30.25R
RATON          CLEAR     55  35  47 CALM      30.21R
CLAYTON        CLEAR     56  46  69 E6        30.17R

$$
NMZ532>537-210300-
EASTCENTRAL PLAINS

CITY           SKY/WX    TMP DP  RH WIND       PRES   REMARKS
TUCUMCARI      MOCLDY    63  52  67 SW8       30.11R
CANNON AFB     MOCLDY    61  54  78 CALM      30.15R
CLOVIS AIRPORT MOCLDY    61  50  67 N8        30.17R

$$
NMZ028-029-538-210300-
SOUTHEAST PLAINS

CITY           SKY/WX    TMP DP  RH WIND       PRES   REMARKS
ROSWELL        LGT RAIN  59  56  89 SW15      30.11S
CARLSBAD       CLOUDY    63  59  87 CALM      30.08R
HOBBS          CLOUDY    64  61  88 CALM      30.11R


$$


USA.gov is the U.S. government's official web portal to all federal, state and local government web resources and services.